This demonstration page uses our WeatherBlox Daily Observations layout. Learn more.

Left ArrowRight Arrow

Hourly Observations for September 18, 2015

Temp ( °F °C ) Dew Point ( °F °C ) Humidity (%) Winds ( mph kmh ) Pressure ( in mb ) Visibility ( mi km ) Precip ( " mm )
12:59 am 00:59 Mostly Clear 65 18.3 62 16.7 90 90 Calm 30.08 1019 7 11 0.00 0.00
1:59 am 01:59 Clear with Mist and Fog 64 17.8 61 16.1 90 90 Calm 30.06 1018 5 8 0.00 0.00
2:59 am 02:59 Clear 63 17.2 61 16.1 93 93 Calm 30.05 1018 7 11 0.00 0.00
3:59 am 03:59 Clear with Mist and Fog 63 17.2 60 15.6 90 90 Calm 30.05 1018 5 8 0.00 0.00
4:59 am 04:59 Clear with Mist and Fog 62 16.7 60 15.6 93 93 Calm 30.03 1017 5 8 0.00 0.00
5:14 am 05:14 Clear with Mist and Fog 62 16.7 59 15 90 90 Calm 30.03 1017 2 3 0.00 0.00
5:16 am 05:16 Clear with Mist and Fog 62 16.7 59 15 90 90 Calm 30.03 1017 1 2 0.00 0.00
5:23 am 05:23 Clear with Mist and Fog 62 16.7 60 15.6 93 93 Calm 30.03 1017 1 1 0.00 0.00
5:25 am 05:25 Clear with Mist and Fog 62 16.7 60 15.6 93 93 Calm 30.03 1017 1 2 0.00 0.00
5:32 am 05:32 Clear with Mist and Fog 63 17.2 60 15.6 90 90 Calm 30.03 1017 1 1 0.00 0.00
5:43 am 05:43 Clear with Mist and Fog 62 16.7 60 15.6 93 93 Calm 30.03 1017 3 4 0.00 0.00
5:50 am 05:50 Clear 62 16.7 60 15.6 93 93 Calm 30.03 1017 7 11 0.00 0.00
5:59 am 05:59 Clear 63 17.2 60 15.6 90 90 Calm 30.04 1017 7 11 0.00 0.00
6:59 am 06:59 Partly Cloudy with Patchy Fog 61 16.1 59 15 93 93 Calm 30.06 1018 7 11 0.00 0.00
7:59 am 07:59 Partly Cloudy with Patchy Fog 67 19.4 65 18.3 93 93 Calm 30.06 1018 7 11 0.00 0.00
8:59 am 08:59 Mostly Sunny 75 23.9 67 19.4 76 76 N 3 6 30.07 1018 10 16 0.00 0.00
9:59 am 09:59 Partly Cloudy 77 25 66 18.9 69 69 N 9 15 30.07 1018 10 16 0.00 0.00
10:59 am 10:59 Mostly Sunny 78 25.6 64 17.8 62 62 NE 7 11 30.08 1019 10 16 0.00 0.00
11:59 am 11:59 Mostly Sunny 81 27.2 64 17.8 57 57 NNE 7 11 30.06 1018 10 16 0.00 0.00
12:59 pm 12:59 Mostly Sunny 80 26.7 63 17.2 56 56 ENE 7 11 30.05 1018 10 16 0.00 0.00
1:59 pm 13:59 Mostly Sunny 80 26.7 66 18.9 62 62 NE 13 20 30.03 1017 10 16 0.00 0.00
2:59 pm 14:59 Mostly Sunny 80 26.7 65 18.3 60 60 ENE 12 19 30.02 1017 10 16 0.00 0.00
3:59 pm 15:59 Mostly Sunny 80 26.7 67 19.4 64 64 E 12 19 30.00 1016 10 16 0.00 0.00
4:59 pm 16:59 Mostly Sunny 79 26.1 69 20.6 72 72 ENE 15 24 29.99 1016 10 16 0.00 0.00
5:59 pm 17:59 Mostly Sunny 78 25.6 69 20.6 74 74 E 12 19 29.99 1016 10 16 0.00 0.00
6:59 pm 18:59 Mostly Sunny 76 24.4 68 20 77 77 E 6 9 29.98 1015 10 16 0.00 0.00
7:59 pm 19:59 Partly Cloudy 74 23.3 68 20 82 82 ESE 3 6 30.00 1016 10 16 0.00 0.00
8:59 pm 20:59 Partly Cloudy 72 22.2 68 20 87 87 Calm 30.00 1016 10 16 0.00 0.00
9:59 pm 21:59 Partly Cloudy 71 21.7 68 20 90 90 Calm 30.01 1016 7 11 0.00 0.00
10:59 pm 22:59 Partly Cloudy with Mist and Fog 70 21.1 67 19.4 90 90 Calm 30.01 1016 6 10 0.00 0.00
11:59 pm 23:59 Partly Cloudy with Mist and Fog 70 21.1 68 20 93 93 Calm 30.00 1016 6 10 0.00 0.00

Powered by AerisWeather